Location: Arena
(42.5007°N, 9.4650°E)
Time: 11:17:55
(UTC+00:00)

H-2A R/B - Pass Details

Date: 09 April 2020
Orbit: 273 x 32781 km, 28.4° (Epoch: 03 June)

Event Time Altitude Azimuth Distance (km) Brightness Sun altitude
Rises 18:48:58 0° 275° (W) 9,858 9.4 -9.9°
Reaches altitude 10° 19:02:02 10° 257° (WSW) 4,681 6.9 -12.2°
Maximum altitude 19:06:33 13° 232° (SW) 2,963 5.4 -12.9°
Drops below altitude 10° 19:09:09 10° 204° (SSW) 2,388 4.6 -13.4°
Enters shadow 19:11:17 - 176° (S) 2,450 4.3 -13.7°
